Погода в Пскове

Погода в Пскове : погода сейчас, прогноз погоды и архив. Всё, что Вы хотите узнать о погоде в Пскове!

Хотите узнать прогноз погоды в Пскове? Тогда Вам сюда: Погода в Пскове

Поиск расширенной информации на нашем сайте:

Другие новости

Новости СМИ2

Главная страница сайта

Новости сайта

03.07.2017

Напоминаем, что на нашем специализированном сайте Метеоцентр.Азия вы можете получить высокодетализированные автоматические прогнозы погоды по пунктам России, СНГ и мира в авиационном формате (включающие направление и скорость ветра, видимость, явления погоды, количество и форму облачности, нижнюю и верхнюю границу облачности).


Погода в Пскове - сегодня

Время (UTC), дата Ветер
(°,м/с) 
Видим.   Явления Облачность Т
(°С)
Тd
(°С)
f(%) Тe
(°С)
Pmin
(гПа)
dP
(гПа)
Po
(мм)
O2
(г/м3)
Тmin Tmax R s Состояние
почвы
21 16.05.18 010 (С) 10 км  слаб. ливневой дождь  10/10 600 м кучево-дожд. 
[Cb cap]
+14.4 +13.2 92 +22  1013.8  0.6  756  287           
03 17.05.18 тихо ()   20000 м    3/3 600 м 
[Sc diur, vesp]
+11.3 +10.9 97 +14  1012.5  -0.6  755  290  +10.4       
09 17.05.18 040 (СВ) 20000 м    4/3 600 м верхняя 
[Cu hum|Ci fib]
+20.1 +11 56 +22  1011.5  -0.5  755  281           
15 17.05.18 110 (В) 20000 м    8/8 600 м верхняя 
[Sc diur, vesp|Ci fib]
+18.9 +13.8 72 +27  1009.2  -1.3  753  281           
21 17.05.18 тихо ()   20000 м  {ливн. осадки}  8/8 600 м кучево-дожд. 
[Cb cap]
+14.4 +13.2 92 +20  1009.7  -0.5  753  286           
03 18.05.18 130 (ЮВ) 20000 м    8/5 600 м средняя 
[Sc|Ac trans]
+13.6 +13.1 97 +20  1008.9  -0.2  753  286  +12         
09 18.05.18 030 (СВ) 20000 м    10/0 кучево-дожд., средняя 
[Cb cap|As trans]
+19.1 +13.7 71 +27  1008.8  0.1  753  281           
21 18.05.18 320 (СЗ) 20000 м    8/5 600 м кучево-дожд., средняя 
[Cb cap|Ac trans]
+12.8 +10.1 84 +14  1010  1.6  754  288           
00 19.05.18 330 (СЗ) 20000 м    9/8 600 м кучево-дожд., средняя 
[Cb cap|Ac trans]
+11.9 +9.7 86 +13  1011  754  289           
03 19.05.18 340 (С) 20000 м    3/0 600 м верхняя 
[Ci fib]
+9.6 +6.3 80 +9  1012.8  1.8  756  293  +9.6         
09 19.05.18 330 (СЗ) 4{11}  20000 м    ясно 
+16.5 -3 26 +17  1015.3  0.7  758  288           
21 19.05.18 360 (С) 20000 м    3/3 600 м 
[Sc diur, vesp]
+11.4 +1.3 50 +13  1020.4  1.6  761  294           
00 20.05.18 350 (С) 20000 м    3/3 600 м 
[Sc diur, vesp]
+9.5 +1.8 59 +10  1021.7  1.2  762  297           
09 20.05.18 300 (СЗ) 20000 м    6/6 600 м 
[Cu med, cong]
+18.8 +3.7 37 +20  1025.3  0.7  765  288           
15 20.05.18 310 (СЗ) 20000 м    6/3 600 м верхняя 
[Cu med, cong|Ci fib]
+20 +1.8 30 +20  1024.9  -0.2  765  287           
21 20.05.18 тихо ()   20000 м    3/0 верхняя 
[Ci fib]
+10.9 +4.3 64 +11  1026.7  1.3  766  296           
00 21.05.18 070 (В) 20000 м    ясно 
+10 +4.4 68 +11  1028.2  1.5  767  297           
03 21.05.18 тихо ()   20000 м    10/3 600 м средняя, верхняя 
[Sc|Ac trans|Ci fib]
+6.9 +5.3 90 +7  1029.6  1.4  768  301  +5.9         
09 21.05.18 110 (В) 20000 м    3/3 1000 м 
[Cu hum]
+22.2 +2.4 27 +22  1029.9  -0.3  768  286           
15 21.05.18 330 (СЗ) 20000 м    ясно 
+23.4 +4.5 29 +23  1026.7  -1.5  766  284           
21 21.05.18 тихо ()   20000 м    ясно 
+10.6 +9.4 92 +11  1026.9  0.2  766  295           
00 22.05.18 тихо ()   20000 м    ясно 
+7.9 +7.2 95 +8  1026.3  -0.6  766  299           
09 22.05.18 120 (ЮВ) 20000 м    6/0 верхняя 
[Cs]
+21.6 +2.5 28 +22  1023.7  -1.7  764  285           
15 22.05.18 180 (Ю) 20000 м    9/8 600 м кучево-дожд., средняя 
[Cb cap|Ac As]
+17.3 +7.3 52 +18  1021.6  -0.6  762  288           
21 22.05.18 160 (Ю) 20000 м  {ливн. осадки}  9/8 600 м кучево-дожд., средняя 
[Cb cap|Ac trans]
+12 +10.8 92 +15  1021  -0.7  762  292           
Время (UTC), дата Ветер
(°,м/с) 
Видим.   Явления Облачность Т
(°С)
Тd
(°С)
f(%) Тe
(°С)
Pmin
(гПа)
dP
(гПа)
Po
(мм)
O2
(г/м3)
Тmin Tmax R s Состояние
почвы

Для получения пояснительной информации подведите курсор к названию столбца.

ПОГОДА в Пскове - архив

Всё, что Вы хотите узнать о погоде в Пскове - удобно и подробно!

Выберите нужную дату (начиная с 1 января 2015* года) и нажмите кнопку "Найти".
Будут отображены архивные сводки погоды по пункту Псков, начиная с указанной даты.


Отображать данные в формате CSV (для использования в таблицах Excel)


Внимание! Наш архив погоды предназначен исключительно для личного некоммерческого использования в познавательных целях. Если Вам необходимы официальные справки о состоянии погоды (для производственных, юридических, коммерческих и т.п. целей), обращайтесь в органы Росгидромета.

*Примечание: данная дата относится к архиву по метеостанциям СССР (Россия, СНГ, Балтия).
Архив по метеостанциям Зарубежной Европы и Азии (кроме Китая) хранится 10 дней, по другим регионам земного шара (Китай, Африка, Америка, Австралия, Океания) - 1 день.

Псков - район местоположения метеостанции


Название, широта, долгота, высота метеостанции:
Псков (город) 57.8°ш. 28.5°д. 44 м над ур. моря [Российская Федерация]

Дополнительная информация

В oтличие oт бoльшинства пoгoдных сайтoв мы публикуем пoдрoбную метеoинфoрмацию в детальнoм прoфессиoнальнoм фoрмате.

Характеристики температуры и влажнoсти вoздуха измеряются на высoте 2 м в тени вдали oт зданий и деревьев.
Скoрoсть ветра измеряется на высoте 10 м (на урoвне рoста челoвека скoрoсть ветра ниже в 1.5-2 раза). Если метеoстанция нахoдится в гoрoде или в лесу, тo скoрoсть ветра занижена на 2-4 м/с пo сравнению с oткрытым местoм. Скoрoсть ветра над акватoриями крупных рек и oзёр, а также на вершинах хoлмoв на 2-5 м/с выше, чем в oбычных услoвиях.
Атмoсфернoе давление в разных тoчках местнoсти мoжет значительнo oтличаться oт давления на метеoстанции, в зависимoсти oт услoвий рельефа (при пoдъёме на 10 м давление пoнижается примернo на 1 мм рт.ст.).